www.pogodaiklimat.ru

Погода и климат >> Архив погоды >> Россия >> Хабаровский край >> Советская Гавань


ПОГОДА в Советской Гавани

  • Прогноз погоды в Советской Гавани
  • Монитор погоды в Советской Гавани
  • Климат города

АРХИВ ПОГОДЫ в Советской Гавани

Время (UTC), дата Ветер
(напр.,м/с)
 
Видим.   Явления Облачность Т
(С)
Тd
(С)
f
(%)
Тe
(С)
Тes
(С)
Комфортность P
(гПа)
Po
(гПа)
Тmin
(С)
Tmax
(С)
R
(мм)
R24
(мм)
S
(см)
03 13.11 ЮЗ 2 50 км 10/0
[Ac trans Ci fib]
-3.6 -12.7 49 -7 -6 1016.1 1013.4
06 13.11 штиль 0 50 км 10/0
[Ac trans Cc]
-1.1 -11.6 45 -1 -1 1014.9 1012.2
09 13.11 штиль 0 45 км 10/0
[Ac trans Ci fib]
-3.8 -6.7 80 -5 -5 1014.2 1011.5 -0.4
12 13.11 З 2 50 км 10/0
[Ac trans Ci fib]
-7.5 -9.8 84 -12 -12 1014.4 1011.7
15 13.11 штиль 0 35 км 10/8 600 м
[Cb cap Ac trans Ci fib]
-9.3 -11.0 87 -10 -10 1012.8 1010.1
18 13.11 ЮЗ 2 35 км 10/8 600 м
[Cb cap Ac trans Ci fib]
-7.4 -9.8 83 -12 -12 1011.2 1008.5
21 13.11 ЮЗ 2 30 км слабый ливневой снег 10/8 600 м
[Cb cap Ac trans Ci fib]
-7.6 -10.1 82 -12 -12 1009.5 1006.8 -9.5 0.0 7
00 14.11 ЮЗ 2 50 км {ливн. осадки} 10/8 600 м
[Cb cap Ac As]
-6.1 -8.8 81 -10 -10 1006.8 1004.1
03 14.11 СВ 2 1000 м ливневой снег 10/10 600 м
[Cb cap]
-0.1 -0.6 96 -4 -4 998.7 996.1
06 14.11 СВ 6-10
{10}
1000 м ливневой снег 10/10 600 м
[Cb cap]
+0.1 -0.2 98 -7 -7 992.5 989.9
09 14.11 СЗ 23-23
{23}
1400 м ливневой снег {метель} 10/10 300 м
[Cb cap]
-1.7 -2.1 97 -14 -14 991.0 998.4 +0.1 25
12 14.11 З 23-23
{23}
8000 м позёмок {ливн. осадки, метель} 10/10 600 м
[Cb cap]
-2.3 -3.6 91 -14 -14 995.0 992.4
15 14.11 ЮЗ 12-12
{15}
13 км {метель} 10/5 600 м
[Cb cap Ac trans Ci fib]
-2.7 -7.0 72 -12 -12 996.1 993.5
18 14.11 ЮЗ 9
{12}
50 км {метель} 3/0
[Ac trans Ci fib]
-5.7 -10.4 69 -15 -15 997.2 994.5
21 14.11 ЮЗ 4 2400 м 6/0
[Ac trans Ci fib]
-6.5 -10.8 71 -13 -13 997.8 995.1 0.6 25
00 15.11 З 4
{10}
50 км 10/4 600 м
[Sc Ac trans Ci fib]
-4.1 -11.3 57 -10 -10 999.4 996.7 -6.7
03 15.11 З 6-12
{12}
50 км 4/1 600 м
[Sc Cc]
-2.6 -11.1 52 -9 -8 999.7 997.0
06 15.11 З 6-10
{14}
50 км 10/1 600 м
[Sc Cc]
-2.7 -11.0 53 -9 -9 1001.4 998.7
09 15.11 З 4
{12}
50 км 6/3 600 м
[Sc Ci fib]
-4.8 -13.1 52 -11 -11 1005.0 1002.3 -2.3
12 15.11 ЮЗ 4 50 км 3/3 600 м
[Sc]
-7.5 -12.2 69 -14 -14 1008.0 1005.3
15 15.11 ЮЗ 2 50 км ясно -10.5 -14.5 72 -15 -15 1009.5 1006.8
18 15.11 ЮЗ 4 45 км ясно -11.3 -16.2 67 -18 -18 1010.9 1008.1
21 15.11 ЮЗ 4 10 км 3/3 600 м
[Sc]
-14.6 -17.3 80 -22 -22 1012.4 1009.6 -14.6
00 16.11 Ю 4 50 км 3/0
[Ac trans Ci fib]
-12.6 -17.5 67 -20 -19 1013.4 1010.6 -15.0
03 16.11 ЮЗ 2 50 км 10/0
[Ac trans Ci fib]
-5.9 -14.7 50 -10 -8 1012.6 1009.9
06 16.11 штиль 0 50 км 10/0
[Ci fib]
-4.5 -15.0 44 -5 -4 1012.9 1010.2
09 16.11 З 2 25 км 10/0
[Ac lent Ci fib]
-7.7 -13.3 64 -12 -12 1015.0 1012.2 -3.3
12 16.11 З 4 29 км 10/0
[Ci fib]
-8.5 -14.7 61 -15 -15 1016.4 1013.7
15 16.11 З 4 35 км 10/0
[Ac lent Ci fib]
-10.7 -18.4 53 -18 -18 1017.5 1014.7
18 16.11 З 4 24 км 10/4 600 м
[Sc Ac lent Ci fib]
-11.3 -18.7 54 -18 -18 1017.8 1015.1
21 16.11 З 4 20 км 10/8 600 м
[Sc Ac lent]
-12.0 -18.6 58 -19 -19 1018.4 1015.6 -12.1 23
00 17.11 ЮЗ 2 50 км 10/3 600 м
[Sc Ac trans Ci fib]
-12.3 -19.4 55 -17 -17 1018.9 1016.1 -13.1
03 17.11 З 2 50 км 10/6 600 м
[Cb cap Ac As Ci fib]
-8.2 -18.4 44 -12 -12 1017.0 1014.3
06 17.11 СЗ 2 50 км 10/4 600 м
[Cb cap Ac und Ci fib]
-7.7 -17.4 46 -12 -12 1016.7 1014.0
09 17.11 З 4 45 км 10/3 600 м
[Sc Ac trans Ci fib]
-9.5 -16.9 55 -16 -16 1017.8 1015.1 -7.6
12 17.11 ЮЗ 2 45 км 10/0
[Ac trans Ci fib]
-14.2 -20.0 61 -19 -19 1018.0 1015.2
15 17.11 ЮЗ 4 50 км 10/0
[Ac trans Ci fib]
-15.3 -20.0 67 -23 -23 1017.7 1014.9
18 17.11 ЮЗ 2 50 км туман местами 10/8 600 м
[Sc Ac trans Ci fib]
-16.1 -19.8 73 -21 -21 1016.6 1013.8
21 17.11 З 2 30 км слабый снег 10/5 600 м
[Sc Ac As Ci fib]
-17.1 -20.6 74 -22 -22 1015.6 1012.8 -17.1 0.0 22
00 18.11 ЮЗ 2 1000 м дымка {снег} 10/6 600 м
[Sc Ac trans Ci fib]
-16.0 -19.9 72 -21 -21 1014.1 1011.3 -17.8
03 18.11 СЗ 4 50 км 10/8 600 м
[Sc Ac As]
-8.6 -13.0 70 -15 -15 1011.1 1008.4
06 18.11 СЗ 6-12
{12}
50 км 10/8 600 м
[Sc Ac As]
-8.2 -13.2 67 -16 -16 1008.8 1006.0
09 18.11 СЗ 8-12
{12}
27 км в посл. час снег 10/8 600 м
[Cb cap As op]
-8.5 -14.7 61 -18 -18 1009.2 1006.5 -7.8 0.0
12 18.11 СЗ 10-16
{16}
30 км {снег} 10/8 600 м
[Cb cap Ac und Ci fib]
-10.2 -16.5 60 -21 -21 1009.6 1006.8
15 18.11 З 8-12
{16}
50 км 10/3 600 м
[Sc Ci fib]
-12.2 -18.8 58 -22 -22 1009.6 1006.8
18 18.11 З 4
{12}
50 км 3/0
[Ci fib]
-13.7 -20.9 55 -21 -21 1010.4 1007.7
21 18.11 З 10-12
{14}
50 км 1/0
[Ci fib]
-14.3 -20.3 60 -26 -26 1009.3 1006.5 -14.3 21
00 19.11 З 4 50 км ясно -13.9 -21.1 54 -21 -21 1009.8 1007.0 -14.9
03 19.11 СЗ 6-10
{10}
50 км ясно -11.2 -19.6 50 -20 -19 1008.8 1006.0
06 19.11 СЗ 6-10
{12}
50 км 3/0
[Ac trans]
-10.6 -19.1 50 -19 -19 1007.9 1005.2
09 19.11 З 6-12
{12}
50 км 10/8 600 м
[Sc Ac As]
-12.1 -19.0 56 -21 -21 1009.2 1006.4 -10.3
12 19.11 З 4 45 км 10/8 600 м
[Sc Ac As]
-14.2 -21.5 54 -22 -22 1010.3 1007.5
15 19.11 З 4 50 км ясно -14.7 -22.0 54 -22 -22 1010.4 1007.6
18 19.11 З 4 30 км 6/3 600 м
[Sc Ci fib]
-15.6 -22.7 54 -24 -24 1010.8 1008.0
21 19.11 З 4 29 км 3/3 600 м
[Sc]
-16.4 -22.5 59 -25 -25 1011.0 1008.2 -16.6
00 20.11 ЮЗ 2 50 км 3/0
[Ac trans Ci fib]
-18.6 -25.2 56 -24 -23 1010.3 1007.5 -19.9

 

Местоположение метеостанции Советская Гавань (Хабаровский край, Россия): широта 49.00 долгота 140.30 высота над уровнем моря 24 м.

В архиве по умолчанию представлена погода в Советской Гавани за последнюю неделю. Архивные данные за месяц целиком и за предыдущие месяцы, начиная с января 2011 года, Вы можете получить, выбрав интересующий диапазон дат из раскрывающегося списка и нажав кнопку "Ввод!".

Внимание! Время в таблицах - всемирное. Для получения местного времени необходимо прибавить поправку, которая в Советской Гавани равна 10 ч.

Смотрите также архив погоды в соседних городах и на ближайших метеорологических станциях:

Погода в Тумнине (Хабаровский край, Россия) (75 км)
Погода в Мопау (Хабаровский край, Россия) (103 км)
Погода в Углегорске (Сахалинская область, Россия) (124 км)
Погода в Солекуль (Хабаровский край, Россия) (169 км)
Погода в Пильво (Сахалинская область, Россия) (175 км)
Погода в Ильинском (Сахалинская область, Россия) (180 км)
Погода в Макарове (Сахалинская область, Россия) (181 км)
Погода в Сегжеме (Хабаровский край, Россия) (203 км)
Погода в Поронайске (Сахалинская область, Россия) (205 км)
Погода в Оноре (Сахалинская область, Россия) (209 км)

Пояснения к столбцам:

Ветер - указаны скорость ветра в м/с - средняя за 10 мин, порывы в срок и между сроками (в фигурных скобках) и направление, откуда дует ветер: С - северный, СВ - северо-восточный, В - восточный, ЮВ - юго-восточный, Ю - южный, ЮЗ - юго-западный, З - западный, СЗ - северо-западный.
Видимость - горизонтальная дальность видимости в метрах или километрах. При видимости от 1 до 10 км при отсутствии осадков обычно наблюдается дымка, при ухудшении видимости до 1 км и менее - туман. В сухую погоду видимость может ухудшаться дымом, пылью или мглою.
Явления - указаны атмосферные явления, наблюдавшиеся в срок или в последний час перед сроком; фигурными скобками обозначены явления, наблюдавшиеся между сроками (за 1-3 часа до срока); квадратными скобками обозначены град или гололедные отложения с указанием их диаметра в мм.
Облачность - указаны через наклонную черту общая и нижняя облачность в баллах и высота нижней границы облаков в метрах; квадратными скобками обозначены формы облаков: Ci - перистые, Cs - перисто-слоистые, Cc - перисто-кучевые, Ac - высококучевые, As - высокослоистые, Sc - слоисто-кучевые, Ns - слоисто-дождевые, Cu - кучевые, Cb - кучево-дождевые. Подробнее классификацию облаков см. в Атласе облаков (PDF).
T - Температура воздуха - температура, измеренная на высоте 2 м над землей.
Td - Температура точки росы - температура, при понижении до которой содержащийся в воздухе водяной пар достигнет насыщения.
f - Относительная влажность воздуха - влажноcть воздуха, измеренная на высоте 2 м над землей.
Te - Эффективная температура - температура, которую ощущает одетый по сезону человек в тени. Характеристика душности погоды. При расчете учитывается влияние влажности воздуха и скорости ветра на теплоощущения человека.
Tes - Эффективная температура на солнце - температура, которую ощущает человек, с поправкой на солнечный нагрев. Характеристика знойности погоды. Зависит от высоты солнца над горизонтом, облачности и скорости ветра. Ночью, в пасмурную погоду, а также при ветре 12 м/с и более поправка равна нулю.
P - Атмосферное давление - приведенное к уровню моря атмосферное давление.
Po - Атмосферное давление - измеренное на уровне метеостанции атмосферное давление.
Tmin - Минимальная температура - минимум температуры воздуха на высоте 2 м над землей.
Tmax - Максимальная температура - максимум температуры воздуха на высоте 2 м над землей.
R - Количество осадков - Количество выпавших осадков за период времени, мм. При наведении курсора мыши на число - период времени, за который выпало указанное количество осадков.
R24 - Количество осадков - Количество выпавших осадков за 24 часа, мм.
S - Снежный покров - Высота снежного покрова, см. При наведении курсора мыши на число - состояние снежного покрова и степень покрытия местности в баллах.